Weather in Shipunovo

Russia / Novosibirsk Oblast     54°00′05″N   82°35′59″E
temp.,
°C
wind,
m/s
gust,
m/s
humid.,
%
clouds,
%
prec.,
mm/h
press.,
hPa
HPBL,
m
9 august, tue
tue901:00+15nne36825 0.3 1010107
04:00+15ne35885 0.0 100981
07:00+15nne378414 0.0 1010144
10:00+22nne5851100 0.0 1009600
13:00+27nne5633100 0.0 10082028
16:00+29nne6630100 0.0 10072900
19:00+27nne6735100 0.0 10071883
22:00+22ne5135227 0.0 1009592
10 august, wed
wed1001:00+16nne367912 0.0 1009117
04:00+15nne39805 0.0 1009187
07:00+16ne4107648 0.0 1009253
10:00+23ene5845100 0.0 1010769
13:00+27ne5631100 0.0 10091886
16:00+29ne5529100 0.0 10082613
19:00+27nne5633100 0.0 10081538
22:00+20ne385119 0.0 1010157
11 august, thu
thu1101:00+17ne3116261 0.0 1010241
04:00+16ne3872100 0.0 1009145
07:00+16ne3772100 0.0 1010162
10:00+23ne5747100 0.0 1010650
13:00+27ne453496 0.0 10101821
16:00+30ne442823 0.0 10082573
19:00+28nne783632 0.0 10081633
22:00+22nne51362100 0.0 1010460
12 august, fri
fri1201:00+19nne41072100 0.0 1010288
04:00+16nne4109254 0.0 1010264
07:00+15nne49931 0.0 1011259
10:00+22ne57500 0.0 1011709
13:00+26ne55370 0.0 10101471
16:00+28nne55310 0.0 10092081
19:00+25n66320 0.0 10091145
22:00+17nne37460 0.0 1010120
13 august, sat
sat1301:00+13ene23570 0.0 101139
04:00+11ene11660 0.0 101010
07:00+12ne11630 0.0 101112
10:00+21sw11350 0.0 1010514
13:00+26sw35270 0.0 10091972
16:00+29sw362168 0.0 10062839
19:00+28w4631100 0.0 10051779
22:00+18wnw412885 0.9 1007384